Location: Hutchins
(43.0916°N, 93.8811°W)
Time: 23:48:30
(UTC+00:00)

ARIANE 6 FM1 Upper Stage - Pass Details

Date: 18 October 2024
Orbit: 558 x 596 km, 62.0° (Epoch: 12 November)

Event Time Altitude Azimuth Distance (km) Brightness Sun altitude
Rises 02:45:43 0° 315° (NW) 2,833 7.1 -36.2°
Reaches altitude 10° 02:48:05 10° 307° (NW) 1,932 6.1 -36.6°
Enters shadow 02:48:53 15° 302° (WNW) 1,643 5.7 -36.7°
